GSAT-14

Last updated on Mon Oct 27 2025 00:02:48 GMT+0000 (Coordinated Universal Time)

1 39498U 14001A 25299.49211404 -.00000065 00000+0 00000+0 0 9991 2 39498 0.0265 263.9658 0005022 326.9260 55.4182 1.00271788 43033
UTC large
Height (km)
Speed (km/s)
/
Latitude / Longitude
Inclination (degrees)
Orbital Period (minutes)
Azimuth
Elevation
Range (km)
Doppler Factor

Next 0 passes for location: London (51.5072 / 0.1276)

Sorry there are no passes over London.